START_TIME,STEP,MOV.,P11,t_acc.,P23,t_acc.,P27,t_acc.,A4,t_acc.
1980-11-14 18:00:11.680 ,6,0,0.,4.8,0.,4.8,0.,4.8,0.,4.8
1980-11-14 18:00:16.480 ,6,0,1.,4.8,0.,4.8,0.,4.8,0.,4.8
1980-11-14 18:00:21.280 ,6,0,0.,4.8,0.,4.8,0.,4.8,0.,4.8
1980-11-14 18:00:26.080 ,6,0,1.,4.8,0.,4.8,0.,4.8,0.,4.8
1980-11-14 18:00:30.880 ,6,0,1.,4.8,0.,4.8,1.,4.8,0.,4.8
1980-11-14 18:00:35.670 ,5,0,1.,4.8,0.,4.8,0.,4.8,0.,4.8
1980-11-14 18:00:40.480 ,5,0,2.,4.8,0.,4.8,0.,4.8,0.,4.8
1980-11-14 18:00:45.280 ,5,0,0.,4.8,0.,4.8,0.,4.8,0.,4.8
1980-11-14 18:00:50.080 ,5,0,0.,4.8,0.,4.8,0.,4.8,0.,4.8
1980-11-14 18:00:54.880 ,5,0,0.,4.8,0.,4.8,0.,4.8,0.,4.8
1980-11-14 18:00:59.670 ,5,0,0.,4.8,0.,4.8,0.,4.8,0.,4.8
1980-11-14 18:01:04.480 ,5,0,1.,4.8,0.,4.8,0.,4.8,0.,4.8
1980-11-14 18:01:09.280 ,5,0,0.,4.8,0.,4.8,0.,4.8,0.,4.8
1980-11-14 18:01:14.080 ,5,0,1.,4.8,0.,4.8,0.,4.8,0.,4.8
1980-11-14 18:01:18.880 ,5,0,0.,4.8,0.,4.8,0.,4.8,0.,4.8
1980-11-14 18:01:23.670 ,4,0,0.,4.8,0.,4.8,0.,4.8,0.,4.8
1980-11-14 18:01:28.470 ,4,0,1.,4.8,0.,4.8,1.,4.8,0.,4.8
1980-11-14 18:01:33.280 ,4,0,1.,4.8,0.,4.8,0.,4.8,0.,4.8
1980-11-14 18:01:38.080 ,4,0,0.,4.8,0.,4.8,0.,4.8,0.,4.8
1980-11-14 18:01:42.880 ,4,0,0.,4.8,0.,4.8,0.,4.8,0.,4.8
1980-11-14 18:01:47.670 ,4,0,0.,4.8,0.,4.8,1.,4.8,0.,4.8
1980-11-14 18:01:52.470 ,4,0,0.,4.8,0.,4.8,0.,4.8,0.,4.8
1980-11-14 18:01:57.280 ,4,0,0.,4.8,0.,4.8,0.,4.8,0.,4.8
1980-11-14 18:02:02.080 ,4,0,0.,4.8,0.,4.8,2.,4.8,0.,4.8
1980-11-14 18:02:06.880 ,4,0,0.,4.8,0.,4.8,0.,4.8,0.,4.8
1980-11-14 18:02:11.680 ,3,0,0.,4.8,0.,4.8,0.,4.8,0.,4.8
1980-11-14 18:02:16.480 ,3,0,1.,4.8,0.,4.8,0.,4.8,0.,4.8
1980-11-14 18:02:21.280 ,3,0,0.,4.8,0.,4.8,0.,4.8,0.,4.8
1980-11-14 18:02:26.070 ,3,0,0.,4.8,0.,4.8,0.,4.8,0.,4.8
1980-11-14 18:02:30.880 ,3,0,0.,4.8,0.,4.8,0.,4.8,0.,4.8
1980-11-14 18:02:35.680 ,3,0,0.,4.8,0.,4.8,0.,4.8,0.,4.8
1980-11-14 18:02:40.470 ,3,0,1.,4.8,0.,4.8,1.,4.8,0.,4.8
1980-11-14 18:02:45.280 ,3,0,0.,4.8,0.,4.8,0.,4.8,0.,4.8
1980-11-14 18:02:50.070 ,3,0,0.,4.8,0.,4.8,0.,4.8,0.,4.8
1980-11-14 18:02:54.880 ,3,0,1.,4.8,0.,4.8,0.,4.8,0.,4.8
1980-11-14 18:02:59.670 ,2,0,1.,4.8,0.,4.8,0.,4.8,0.,4.8
1980-11-14 18:03:04.470 ,2,0,1.,4.8,0.,4.8,0.,4.8,0.,4.8
1980-11-14 18:03:09.270 ,2,0,1.,4.8,0.,4.8,0.,4.8,0.,4.8
1980-11-14 18:03:14.080 ,2,0,2.,4.8,0.,4.8,0.,4.8,0.,4.8
1980-11-14 18:03:18.880 ,2,0,0.,4.8,0.,4.8,0.,4.8,0.,4.8
1980-11-14 18:03:23.680 ,2,0,0.,4.8,0.,4.8,0.,4.8,0.,4.8
1980-11-14 18:03:28.480 ,2,0,0.,4.8,0.,4.8,0.,4.8,0.,4.8
1980-11-14 18:03:33.280 ,2,0,0.,4.8,0.,4.8,0.,4.8,0.,4.8
1980-11-14 18:03:38.080 ,2,0,0.,4.8,0.,4.8,0.,4.8,0.,4.8
1980-11-14 18:03:42.880 ,2,0,0.,4.8,0.,4.8,0.,4.8,0.,4.8
1980-11-14 18:03:47.680 ,1,0,0.,4.8,0.,4.8,0.,4.8,0.,4.8
1980-11-14 18:03:52.480 ,1,0,2.,4.8,0.,4.8,0.,4.8,0.,4.8
1980-11-14 18:03:57.280 ,1,0,0.,4.8,0.,4.8,0.,4.8,0.,4.8
1980-11-14 18:04:02.080 ,1,0,0.,4.8,0.,4.8,0.,4.8,0.,4.8
1980-11-14 18:04:06.880 ,1,0,0.,4.8,0.,4.8,0.,4.8,0.,4.8
1980-11-14 18:04:11.680 ,1,0,1.,4.8,0.,4.8,0.,4.8,0.,4.8
1980-11-14 18:04:16.480 ,1,0,0.,4.8,0.,4.8,0.,4.8,0.,4.8
1980-11-14 18:04:21.270 ,1,0,0.,4.8,0.,4.8,0.,4.8,0.,4.8
1980-11-14 18:04:26.080 ,1,0,1.,4.8,0.,4.8,0.,4.8,0.,4.8
1980-11-14 18:04:30.880 ,1,0,0.,4.8,0.,4.8,1.,4.8,0.,4.8
1980-11-14 18:04:35.680 ,0,0,1.,4.8,0.,4.8,0.,4.8,0.,4.8
1980-11-14 18:04:40.480 ,0,0,0.,4.8,0.,4.8,0.,4.8,0.,4.8
1980-11-14 18:04:45.280 ,0,0,0.,4.8,0.,4.8,0.,4.8,0.,4.8
1980-11-14 18:04:50.080 ,0,0,0.,4.8,0.,4.8,0.,4.8,0.,4.8
1980-11-14 18:04:54.880 ,0,0,0.,4.8,0.,4.8,2.,4.8,0.,4.8
1980-11-14 18:04:59.680 ,0,0,0.,4.8,0.,4.8,0.,4.8,0.,4.8
1980-11-14 18:05:04.480 ,0,0,0.,4.8,0.,4.8,0.,4.8,0.,4.8
1980-11-14 18:05:09.280 ,0,0,0.,4.8,0.,4.8,0.,4.8,0.,4.8
1980-11-14 18:05:14.080 ,0,0,0.,4.8,0.,4.8,0.,4.8,0.,4.8
1980-11-14 18:05:18.880 ,0,0,0.,4.8,0.,4.8,0.,4.8,0.,4.8
1980-11-14 18:05:23.680 ,0,0,2.,4.8,0.,4.8,0.,4.8,0.,4.8
1980-11-14 18:05:28.480 ,0,0,1.,4.8,0.,4.8,0.,4.8,0.,4.8
1980-11-14 18:05:33.280 ,0,0,2.,4.8,0.,4.8,0.,4.8,0.,4.8
1980-11-14 18:05:38.080 ,0,0,0.,4.8,0.,4.8,0.,4.8,0.,4.8
1980-11-14 18:05:42.880 ,0,0,0.,4.8,0.,4.8,1.,4.8,0.,4.8
1980-11-14 18:05:47.680 ,0,0,0.,4.8,0.,4.8,0.,4.8,0.,4.8
1980-11-14 18:05:52.480 ,0,0,0.,4.8,0.,4.8,0.,4.8,0.,4.8
1980-11-14 18:05:57.280 ,0,0,0.,4.8,0.,4.8,0.,4.8,0.,4.8
1980-11-14 18:06:02.080 ,0,0,0.,4.8,0.,4.8,0.,4.8,0.,4.8
1980-11-14 18:06:06.880 ,0,0,0.,4.8,0.,4.8,0.,4.8,0.,4.8
1980-11-14 18:06:11.680 ,1,0,0.,4.8,0.,4.8,0.,4.8,0.,4.8
1980-11-14 18:06:16.480 ,1,0,0.,4.8,0.,4.8,0.,4.8,0.,4.8
1980-11-14 18:06:21.280 ,1,0,0.,4.8,0.,4.8,0.,4.8,0.,4.8
1980-11-14 18:06:26.080 ,1,0,0.,4.8,0.,4.8,0.,4.8,0.,4.8
1980-11-14 18:06:30.880 ,1,0,1.,4.8,1.,4.8,1.,4.8,0.,4.8
1980-11-14 18:06:35.680 ,1,0,1.,4.8,0.,4.8,0.,4.8,0.,4.8
1980-11-14 18:06:40.480 ,1,0,0.,4.8,0.,4.8,0.,4.8,0.,4.8
1980-11-14 18:06:45.280 ,1,0,0.,4.8,0.,4.8,0.,4.8,0.,4.8
1980-11-14 18:06:50.080 ,1,0,0.,4.8,0.,4.8,0.,4.8,0.,4.8
1980-11-14 18:06:54.880 ,1,0,0.,4.8,0.,4.8,0.,4.8,0.,4.8
1980-11-14 18:06:59.680 ,2,0,1.,4.8,0.,4.8,0.,4.8,0.,4.8
1980-11-14 18:07:04.480 ,2,0,1.,4.8,0.,4.8,0.,4.8,0.,4.8
1980-11-14 18:07:09.280 ,2,0,1.,4.8,0.,4.8,0.,4.8,0.,4.8
1980-11-14 18:07:14.080 ,2,0,1.,4.8,0.,4.8,0.,4.8,0.,4.8
1980-11-14 18:07:18.880 ,2,0,0.,4.8,0.,4.8,0.,4.8,0.,4.8
1980-11-14 18:07:23.680 ,2,0,2.,4.8,1.,4.8,0.,4.8,0.,4.8
1980-11-14 18:07:28.480 ,2,0,1.,4.8,0.,4.8,0.,4.8,0.,4.8
1980-11-14 18:07:33.280 ,2,0,0.,4.8,0.,4.8,0.,4.8,0.,4.8
1980-11-14 18:07:38.080 ,2,0,0.,4.8,0.,4.8,0.,4.8,0.,4.8
1980-11-14 18:07:42.880 ,2,0,0.,4.8,0.,4.8,0.,4.8,0.,4.8
1980-11-14 18:07:47.680 ,3,0,0.,4.8,0.,4.8,0.,4.8,0.,4.8
1980-11-14 18:07:52.480 ,3,0,0.,4.8,0.,4.8,0.,4.8,0.,4.8
1980-11-14 18:07:57.280 ,3,0,0.,4.8,0.,4.8,0.,4.8,0.,4.8
1980-11-14 18:08:02.080 ,3,0,1.,4.8,0.,4.8,0.,4.8,0.,4.8
1980-11-14 18:08:06.880 ,3,0,0.,4.8,0.,4.8,0.,4.8,0.,4.8
1980-11-14 18:08:11.680 ,3,0,1.,4.8,0.,4.8,0.,4.8,0.,4.8
1980-11-14 18:08:16.480 ,3,0,2.,4.8,0.,4.8,0.,4.8,0.,4.8
1980-11-14 18:08:21.280 ,3,0,0.,4.8,0.,4.8,0.,4.8,0.,4.8
1980-11-14 18:08:26.080 ,3,0,1.,4.8,0.,4.8,0.,4.8,0.,4.8
1980-11-14 18:08:30.880 ,3,0,1.,4.8,0.,4.8,0.,4.8,0.,4.8
1980-11-14 18:08:35.670 ,4,0,0.,4.8,0.,4.8,0.,4.8,0.,4.8
1980-11-14 18:08:40.480 ,4,0,0.,4.8,0.,4.8,0.,4.8,0.,4.8
1980-11-14 18:08:45.280 ,4,0,0.,4.8,0.,4.8,0.,4.8,0.,4.8
1980-11-14 18:08:50.080 ,4,0,0.,4.8,0.,4.8,0.,4.8,0.,4.8
1980-11-14 18:08:54.880 ,4,0,0.,4.8,0.,4.8,0.,4.8,0.,4.8
1980-11-14 18:08:59.670 ,4,0,0.,4.8,0.,4.8,0.,4.8,0.,4.8
1980-11-14 18:09:04.480 ,4,0,0.,4.8,0.,4.8,1.,4.8,0.,4.8
1980-11-14 18:09:09.280 ,4,0,1.,4.8,1.,4.8,0.,4.8,0.,4.8
1980-11-14 18:09:14.080 ,4,0,0.,4.8,0.,4.8,0.,4.8,0.,4.8
1980-11-14 18:09:18.880 ,4,0,0.,4.8,0.,4.8,0.,4.8,0.,4.8
1980-11-14 18:09:23.670 ,5,0,0.,4.8,0.,4.8,0.,4.8,0.,4.8
1980-11-14 18:09:28.480 ,5,0,0.,4.8,0.,4.8,0.,4.8,0.,4.8
1980-11-14 18:09:33.280 ,5,0,0.,4.8,0.,4.8,0.,4.8,0.,4.8
1980-11-14 18:09:38.080 ,5,0,0.,4.8,0.,4.8,0.,4.8,0.,4.8
1980-11-14 18:09:42.880 ,5,0,0.,4.8,0.,4.8,0.,4.8,0.,4.8
1980-11-14 18:09:47.670 ,5,0,0.,4.8,0.,4.8,0.,4.8,0.,4.8
1980-11-14 18:09:52.480 ,5,0,0.,4.8,0.,4.8,0.,4.8,0.,4.8
1980-11-14 18:09:57.280 ,5,0,0.,4.8,0.,4.8,0.,4.8,0.,4.8
1980-11-14 18:10:02.080 ,5,0,0.,4.8,0.,4.8,0.,4.8,0.,4.8
1980-11-14 18:10:06.880 ,5,0,1.,4.8,0.,4.8,0.,4.8,0.,4.8
1980-11-14 18:10:11.670 ,6,0,0.,4.8,0.,4.8,0.,4.8,0.,4.8
1980-11-14 18:10:16.480 ,6,0,0.,4.8,0.,4.8,0.,4.8,0.,4.8
1980-11-14 18:10:21.280 ,6,0,0.,4.8,0.,4.8,0.,4.8,0.,4.8
1980-11-14 18:10:26.080 ,6,0,0.,4.8,0.,4.8,0.,4.8,0.,4.8
1980-11-14 18:10:30.880 ,6,0,0.,4.8,0.,4.8,0.,4.8,0.,4.8
1980-11-14 18:10:35.670 ,6,0,0.,4.8,0.,4.8,0.,4.8,0.,4.8
1980-11-14 18:10:40.480 ,6,0,0.,4.8,0.,4.8,0.,4.8,0.,4.8
1980-11-14 18:10:45.280 ,6,0,0.,4.8,0.,4.8,0.,4.8,0.,4.8
1980-11-14 18:10:50.080 ,6,0,0.,4.8,0.,4.8,0.,4.8,0.,4.8
1980-11-14 18:10:54.880 ,6,0,1.,4.8,0.,4.8,0.,4.8,0.,4.8
1980-11-14 18:10:59.670 ,7,0,1.,4.8,0.,4.8,0.,4.8,0.,4.8
1980-11-14 18:11:04.480 ,7,0,0.,4.8,0.,4.8,1.,4.8,0.,4.8
1980-11-14 18:11:09.280 ,7,0,0.,4.8,0.,4.8,0.,4.8,0.,4.8
1980-11-14 18:11:14.080 ,7,0,0.,4.8,0.,4.8,0.,4.8,0.,4.8
1980-11-14 18:11:18.880 ,7,0,0.,4.8,0.,4.8,1.,4.8,0.,4.8
1980-11-14 18:11:23.670 ,7,0,0.,4.8,0.,4.8,0.,4.8,0.,4.8
1980-11-14 18:11:28.480 ,7,0,0.,4.8,0.,4.8,0.,4.8,0.,4.8
1980-11-14 18:11:33.280 ,7,0,0.,4.8,0.,4.8,0.,4.8,0.,4.8
1980-11-14 18:11:38.080 ,7,0,0.,4.8,0.,4.8,0.,4.8,0.,4.8
1980-11-14 18:11:42.880 ,7,0,2.,4.8,0.,4.8,0.,4.8,0.,4.8
1980-11-14 18:11:47.670 ,7,0,1.,4.8,0.,4.8,0.,4.8,0.,4.8
1980-11-14 18:11:52.480 ,7,0,0.,4.8,0.,4.8,0.,4.8,0.,4.8
1980-11-14 18:11:57.280 ,7,0,0.,4.8,0.,4.8,1.,4.8,0.,4.8
1980-11-14 18:12:02.080 ,7,0,1.,4.8,0.,4.8,0.,4.8,0.,4.8
1980-11-14 18:12:06.880 ,7,0,2.,4.8,0.,4.8,0.,4.8,0.,4.8
1980-11-14 18:12:11.670 ,7,0,0.,4.8,0.,4.8,0.,4.8,0.,4.8
1980-11-14 18:12:16.480 ,7,0,1.,4.8,0.,4.8,0.,4.8,0.,4.8
1980-11-14 18:12:21.280 ,7,0,0.,4.8,0.,4.8,0.,4.8,0.,4.8
1980-11-14 18:12:26.080 ,7,0,0.,4.8,0.,4.8,0.,4.8,0.,4.8
1980-11-14 18:12:30.880 ,7,0,0.,4.8,0.,4.8,0.,4.8,0.,4.8
1980-11-14 18:12:35.670 ,6,0,1.,4.8,0.,4.8,0.,4.8,0.,4.8
1980-11-14 18:12:40.480 ,6,0,0.,4.8,0.,4.8,0.,4.8,0.,4.8
1980-11-14 18:12:45.280 ,6,0,0.,4.8,0.,4.8,1.,4.8,0.,4.8
1980-11-14 18:12:50.080 ,6,0,1.,4.8,0.,4.8,0.,4.8,0.,4.8
1980-11-14 18:12:54.880 ,6,0,0.,4.8,0.,4.8,0.,4.8,0.,4.8
1980-11-14 18:12:59.670 ,6,0,2.,4.8,0.,4.8,0.,4.8,0.,4.8
1980-11-14 18:13:04.480 ,6,0,0.,4.8,0.,4.8,0.,4.8,0.,4.8
1980-11-14 18:13:09.280 ,6,0,0.,4.8,0.,4.8,0.,4.8,0.,4.8
1980-11-14 18:13:14.080 ,6,0,0.,4.8,0.,4.8,0.,4.8,0.,4.8
1980-11-14 18:13:18.880 ,6,0,0.,4.8,0.,4.8,0.,4.8,0.,4.8
1980-11-14 18:13:23.670 ,5,0,0.,4.8,0.,4.8,0.,4.8,0.,4.8
1980-11-14 18:13:28.480 ,5,0,0.,4.8,0.,4.8,0.,4.8,0.,4.8
1980-11-14 18:13:33.280 ,5,0,1.,4.8,0.,4.8,0.,4.8,0.,4.8
1980-11-14 18:13:38.080 ,5,0,1.,4.8,0.,4.8,0.,4.8,0.,4.8
1980-11-14 18:13:42.880 ,5,0,0.,4.8,0.,4.8,0.,4.8,0.,4.8
1980-11-14 18:13:47.670 ,5,0,0.,4.8,0.,4.8,0.,4.8,0.,4.8
1980-11-14 18:13:52.480 ,5,0,2.,4.8,0.,4.8,0.,4.8,0.,4.8
1980-11-14 18:13:57.280 ,5,0,0.,4.8,0.,4.8,0.,4.8,0.,4.8
1980-11-14 18:14:02.080 ,5,0,0.,4.8,0.,4.8,0.,4.8,0.,4.8
1980-11-14 18:14:06.880 ,5,0,1.,4.8,0.,4.8,1.,4.8,0.,4.8
1980-11-14 18:14:11.670 ,4,0,0.,4.8,0.,4.8,0.,4.8,0.,4.8
1980-11-14 18:14:16.480 ,4,0,0.,4.8,0.,4.8,0.,4.8,0.,4.8
1980-11-14 18:14:21.280 ,4,0,1.,4.8,0.,4.8,0.,4.8,0.,4.8
1980-11-14 18:14:26.080 ,4,0,0.,4.8,0.,4.8,0.,4.8,0.,4.8
1980-11-14 18:14:30.880 ,4,0,0.,4.8,0.,4.8,0.,4.8,0.,4.8
1980-11-14 18:14:35.670 ,4,0,0.,4.8,0.,4.8,0.,4.8,0.,4.8
1980-11-14 18:14:40.480 ,4,0,0.,4.8,0.,4.8,0.,4.8,0.,4.8
1980-11-14 18:14:45.280 ,4,0,0.,4.8,0.,4.8,0.,4.8,0.,4.8
1980-11-14 18:14:50.080 ,4,0,1.,4.8,0.,4.8,0.,4.8,0.,4.8
1980-11-14 18:14:54.880 ,4,0,0.,4.8,0.,4.8,0.,4.8,0.,4.8
1980-11-14 18:14:59.670 ,3,0,3.,4.8,0.,4.8,0.,4.8,0.,4.8
1980-11-14 18:15:04.480 ,3,0,0.,4.8,0.,4.8,0.,4.8,0.,4.8
1980-11-14 18:15:09.280 ,3,0,1.,4.8,0.,4.8,0.,4.8,0.,4.8
1980-11-14 18:15:14.080 ,3,0,0.,4.8,0.,4.8,0.,4.8,0.,4.8
1980-11-14 18:15:18.880 ,3,0,0.,4.8,0.,4.8,0.,4.8,0.,4.8
1980-11-14 18:15:23.670 ,3,0,0.,4.8,0.,4.8,0.,4.8,0.,4.8
1980-11-14 18:15:28.480 ,3,0,0.,4.8,0.,4.8,1.,4.8,0.,4.8
1980-11-14 18:15:33.280 ,3,0,0.,4.8,0.,4.8,0.,4.8,0.,4.8
1980-11-14 18:15:38.080 ,3,0,1.,4.8,0.,4.8,0.,4.8,0.,4.8
1980-11-14 18:15:42.880 ,3,0,0.,4.8,0.,4.8,0.,4.8,0.,4.8
1980-11-14 18:15:47.670 ,2,0,0.,4.8,0.,4.8,0.,4.8,0.,4.8
1980-11-14 18:15:52.480 ,2,0,0.,4.8,0.,4.8,0.,4.8,0.,4.8
1980-11-14 18:15:57.280 ,2,0,1.,4.8,0.,4.8,1.,4.8,0.,4.8
1980-11-14 18:16:02.080 ,2,0,0.,4.8,0.,4.8,0.,4.8,0.,4.8
1980-11-14 18:16:06.880 ,2,0,0.,4.8,1.,4.8,0.,4.8,0.,4.8
1980-11-14 18:16:11.670 ,2,0,0.,4.8,0.,4.8,0.,4.8,0.,4.8
1980-11-14 18:16:16.480 ,2,0,0.,4.8,0.,4.8,0.,4.8,0.,4.8
1980-11-14 18:16:21.280 ,2,0,0.,4.8,0.,4.8,0.,4.8,0.,4.8
1980-11-14 18:16:26.080 ,2,0,0.,4.8,0.,4.8,0.,4.8,0.,4.8
1980-11-14 18:16:30.880 ,2,0,0.,4.8,0.,4.8,0.,4.8,0.,4.8
1980-11-14 18:16:35.670 ,1,0,0.,4.8,0.,4.8,0.,4.8,0.,4.8
1980-11-14 18:16:40.480 ,1,0,0.,4.8,0.,4.8,0.,4.8,0.,4.8
1980-11-14 18:16:45.280 ,1,0,0.,4.8,0.,4.8,0.,4.8,0.,4.8
1980-11-14 18:16:50.080 ,1,0,1.,4.8,0.,4.8,0.,4.8,0.,4.8
1980-11-14 18:16:54.880 ,1,0,1.,4.8,0.,4.8,0.,4.8,0.,4.8
1980-11-14 18:16:59.670 ,1,0,1.,4.8,0.,4.8,0.,4.8,0.,4.8
1980-11-14 18:17:04.470 ,1,0,0.,4.8,0.,4.8,0.,4.8,0.,4.8
1980-11-14 18:17:09.280 ,1,0,1.,4.8,0.,4.8,0.,4.8,0.,4.8
1980-11-14 18:17:14.080 ,1,0,0.,4.8,0.,4.8,0.,4.8,0.,4.8
1980-11-14 18:17:18.880 ,1,0,0.,4.8,0.,4.8,0.,4.8,0.,4.8
1980-11-14 18:17:23.670 ,0,0,0.,4.8,1.,4.8,0.,4.8,0.,4.8
1980-11-14 18:17:28.470 ,0,0,0.,4.8,0.,4.8,0.,4.8,0.,4.8
1980-11-14 18:17:33.270 ,0,0,0.,4.8,0.,4.8,0.,4.8,0.,4.8
1980-11-14 18:17:38.070 ,0,0,0.,4.8,0.,4.8,0.,4.8,0.,4.8
1980-11-14 18:17:42.880 ,0,0,0.,4.8,0.,4.8,0.,4.8,0.,4.8
1980-11-14 18:17:47.670 ,0,0,1.,4.8,0.,4.8,0.,4.8,0.,4.8
1980-11-14 18:17:52.470 ,0,0,2.,4.8,0.,4.8,0.,4.8,0.,4.8
1980-11-14 18:17:57.270 ,0,0,0.,4.8,0.,4.8,0.,4.8,0.,4.8
1980-11-14 18:18:02.070 ,0,0,2.,4.8,0.,4.8,1.,4.8,0.,4.8
1980-11-14 18:18:06.880 ,0,0,1.,4.8,0.,4.8,0.,4.8,0.,4.8
1980-11-14 18:18:11.670 ,0,0,1.,4.8,0.,4.8,0.,4.8,0.,4.8
1980-11-14 18:18:16.470 ,0,0,1.,4.8,0.,4.8,0.,4.8,0.,4.8
1980-11-14 18:18:21.270 ,0,0,1.,4.8,0.,4.8,0.,4.8,0.,4.8
1980-11-14 18:18:26.070 ,0,0,1.,4.8,0.,4.8,0.,4.8,0.,4.8
1980-11-14 18:18:30.880 ,0,0,0.,4.8,0.,4.8,1.,4.8,0.,4.8
1980-11-14 18:18:35.670 ,0,0,0.,4.8,0.,4.8,0.,4.8,0.,4.8
1980-11-14 18:18:40.470 ,0,0,0.,4.8,0.,4.8,0.,4.8,0.,4.8
1980-11-14 18:18:45.270 ,0,0,0.,4.8,0.,4.8,0.,4.8,0.,4.8
1980-11-14 18:18:50.070 ,0,0,0.,4.8,0.,4.8,1.,4.8,0.,4.8
1980-11-14 18:18:54.880 ,0,0,1.,4.8,0.,4.8,0.,4.8,0.,4.8
1980-11-14 18:18:59.670 ,1,0,1.,4.8,0.,4.8,0.,4.8,0.,4.8
1980-11-14 18:19:04.470 ,1,0,0.,4.8,0.,4.8,1.,4.8,0.,4.8
1980-11-14 18:19:09.270 ,1,0,0.,4.8,0.,4.8,0.,4.8,0.,4.8
1980-11-14 18:19:14.070 ,1,0,1.,4.8,0.,4.8,0.,4.8,0.,4.8
1980-11-14 18:19:18.880 ,1,0,1.,4.8,0.,4.8,0.,4.8,0.,4.8
1980-11-14 18:19:23.670 ,1,0,0.,4.8,0.,4.8,0.,4.8,0.,4.8
1980-11-14 18:19:28.470 ,1,0,0.,4.8,0.,4.8,0.,4.8,0.,4.8
1980-11-14 18:19:33.270 ,1,0,1.,4.8,0.,4.8,0.,4.8,0.,4.8
1980-11-14 18:19:38.070 ,1,0,0.,4.8,0.,4.8,0.,4.8,0.,4.8
1980-11-14 18:19:42.880 ,1,0,0.,4.8,0.,4.8,0.,4.8,0.,4.8
1980-11-14 18:19:47.670 ,2,0,0.,4.8,0.,4.8,0.,4.8,0.,4.8
1980-11-14 18:19:52.470 ,2,0,0.,4.8,0.,4.8,0.,4.8,0.,4.8
1980-11-14 18:19:57.270 ,2,0,2.,4.8,0.,4.8,0.,4.8,0.,4.8
1980-11-14 18:20:02.070 ,2,0,0.,4.8,0.,4.8,0.,4.8,0.,4.8
1980-11-14 18:20:06.880 ,2,0,0.,4.8,0.,4.8,0.,4.8,0.,4.8
1980-11-14 18:20:11.670 ,2,0,0.,4.8,0.,4.8,0.,4.8,0.,4.8
1980-11-14 18:20:16.470 ,2,0,1.,4.8,0.,4.8,0.,4.8,0.,4.8
1980-11-14 18:20:21.270 ,2,0,0.,4.8,0.,4.8,0.,4.8,0.,4.8
1980-11-14 18:20:26.070 ,2,0,0.,4.8,0.,4.8,0.,4.8,0.,4.8
1980-11-14 18:20:30.880 ,2,0,0.,4.8,0.,4.8,0.,4.8,0.,4.8
1980-11-14 18:20:35.670 ,3,0,0.,4.8,0.,4.8,0.,4.8,0.,4.8
1980-11-14 18:20:40.470 ,3,0,0.,4.8,0.,4.8,0.,4.8,0.,4.8
1980-11-14 18:20:45.270 ,3,0,0.,4.8,0.,4.8,0.,4.8,0.,4.8
1980-11-14 18:20:50.070 ,3,0,0.,4.8,0.,4.8,0.,4.8,0.,4.8
1980-11-14 18:20:54.880 ,3,0,0.,4.8,0.,4.8,1.,4.8,0.,4.8
1980-11-14 18:20:59.670 ,3,0,0.,4.8,0.,4.8,0.,4.8,0.,4.8
1980-11-14 18:21:04.470 ,3,0,0.,4.8,0.,4.8,0.,4.8,0.,4.8
1980-11-14 18:21:09.270 ,3,0,1.,4.8,0.,4.8,0.,4.8,0.,4.8
1980-11-14 18:21:14.070 ,3,0,2.,4.8,0.,4.8,0.,4.8,0.,4.8
1980-11-14 18:21:18.880 ,3,0,0.,4.8,0.,4.8,0.,4.8,0.,4.8
1980-11-14 18:21:23.670 ,4,0,1.,4.8,0.,4.8,0.,4.8,0.,4.8
1980-11-14 18:21:28.470 ,4,0,1.,4.8,0.,4.8,0.,4.8,0.,4.8
1980-11-14 18:21:33.270 ,4,0,0.,4.8,0.,4.8,0.,4.8,0.,4.8
1980-11-14 18:21:38.070 ,4,0,1.,4.8,0.,4.8,0.,4.8,0.,4.8
1980-11-14 18:21:42.880 ,4,0,1.,4.8,0.,4.8,0.,4.8,0.,4.8
1980-11-14 18:21:47.670 ,4,0,0.,4.8,0.,4.8,0.,4.8,0.,4.8
1980-11-14 18:21:52.470 ,4,0,0.,4.8,0.,4.8,0.,4.8,0.,4.8
1980-11-14 18:21:57.270 ,4,0,1.,4.8,0.,4.8,0.,4.8,0.,4.8
1980-11-14 18:22:02.070 ,4,0,0.,4.8,0.,4.8,0.,4.8,0.,4.8
1980-11-14 18:22:06.880 ,4,0,1.,4.8,0.,4.8,0.,4.8,0.,4.8
1980-11-14 18:22:11.670 ,5,0,0.,4.8,0.,4.8,0.,4.8,0.,4.8
1980-11-14 18:22:16.470 ,5,0,0.,4.8,1.,4.8,0.,4.8,0.,4.8
1980-11-14 18:22:21.270 ,5,0,0.,4.8,0.,4.8,0.,4.8,0.,4.8
1980-11-14 18:22:26.070 ,5,0,2.,4.8,0.,4.8,0.,4.8,0.,4.8
1980-11-14 18:22:30.880 ,5,0,0.,4.8,0.,4.8,0.,4.8,0.,4.8
1980-11-14 18:22:35.670 ,5,0,0.,4.8,0.,4.8,0.,4.8,0.,4.8
1980-11-14 18:22:40.470 ,5,0,0.,4.8,1.,4.8,0.,4.8,0.,4.8
1980-11-14 18:22:45.270 ,5,0,0.,4.8,0.,4.8,0.,4.8,0.,4.8
1980-11-14 18:22:50.070 ,5,0,1.,4.8,0.,4.8,0.,4.8,0.,4.8
1980-11-14 18:22:54.880 ,5,0,1.,4.8,0.,4.8,0.,4.8,0.,4.8
1980-11-14 18:22:59.670 ,6,0,1.,4.8,0.,4.8,0.,4.8,0.,4.8
1980-11-14 18:23:04.470 ,6,0,0.,4.8,0.,4.8,0.,4.8,0.,4.8
1980-11-14 18:23:09.270 ,6,0,1.,4.8,0.,4.8,0.,4.8,0.,4.8
1980-11-14 18:23:14.070 ,6,0,0.,4.8,1.,4.8,0.,4.8,0.,4.8
1980-11-14 18:23:18.880 ,6,0,0.,4.8,0.,4.8,0.,4.8,0.,4.8
1980-11-14 18:23:23.670 ,6,0,1.,4.8,0.,4.8,0.,4.8,0.,4.8
1980-11-14 18:23:28.470 ,6,0,2.,4.8,0.,4.8,0.,4.8,0.,4.8
1980-11-14 18:23:33.270 ,6,0,1.,4.8,0.,4.8,0.,4.8,0.,4.8
1980-11-14 18:23:38.070 ,6,0,0.,4.8,0.,4.8,1.,4.8,0.,4.8
1980-11-14 18:23:42.880 ,6,0,0.,4.8,0.,4.8,0.,4.8,0.,4.8
1980-11-14 18:23:47.670 ,7,0,1.,4.8,0.,4.8,0.,4.8,0.,4.8
1980-11-14 18:23:52.470 ,7,0,0.,4.8,0.,4.8,0.,4.8,0.,4.8
1980-11-14 18:23:57.270 ,7,0,0.,4.8,0.,4.8,0.,4.8,0.,4.8
1980-11-14 18:24:02.070 ,7,0,1.,4.8,0.,4.8,0.,4.8,0.,4.8
1980-11-14 18:24:06.880 ,7,0,1.,4.8,0.,4.8,0.,4.8,0.,4.8
1980-11-14 18:24:11.670 ,7,0,0.,4.8,2.,4.8,1.,4.8,0.,4.8
1980-11-14 18:24:16.470 ,7,0,1.,4.8,0.,4.8,0.,4.8,0.,4.8
1980-11-14 18:24:21.270 ,7,0,0.,4.8,0.,4.8,0.,4.8,0.,4.8
1980-11-14 18:24:26.070 ,7,0,1.,4.8,0.,4.8,1.,4.8,0.,4.8
1980-11-14 18:24:30.880 ,7,0,0.,4.8,0.,4.8,0.,4.8,0.,4.8
1980-11-14 18:24:35.670 ,7,0,0.,4.8,0.,4.8,0.,4.8,0.,4.8
1980-11-14 18:24:40.470 ,7,0,0.,4.8,0.,4.8,0.,4.8,0.,4.8
1980-11-14 18:24:45.270 ,7,0,1.,4.8,0.,4.8,0.,4.8,0.,4.8
1980-11-14 18:24:50.070 ,7,0,1.,4.8,0.,4.8,0.,4.8,0.,4.8
1980-11-14 18:24:54.880 ,7,0,0.,4.8,0.,4.8,0.,4.8,0.,4.8
1980-11-14 18:24:59.670 ,7,0,0.,4.8,0.,4.8,0.,4.8,0.,4.8
1980-11-14 18:25:04.470 ,7,0,0.,4.8,0.,4.8,0.,4.8,0.,4.8
1980-11-14 18:25:09.270 ,7,0,0.,4.8,1.,4.8,0.,4.8,0.,4.8
1980-11-14 18:25:14.070 ,7,0,0.,4.8,0.,4.8,0.,4.8,0.,4.8
1980-11-14 18:25:18.880 ,7,0,0.,4.8,0.,4.8,0.,4.8,0.,4.8
1980-11-14 18:25:23.670 ,6,0,0.,4.8,0.,4.8,0.,4.8,0.,4.8
1980-11-14 18:25:28.470 ,6,0,0.,4.8,0.,4.8,0.,4.8,0.,4.8
1980-11-14 18:25:33.270 ,6,0,0.,4.8,0.,4.8,0.,4.8,0.,4.8
1980-11-14 18:25:38.070 ,6,0,0.,4.8,0.,4.8,0.,4.8,0.,4.8
1980-11-14 18:25:42.880 ,6,0,0.,4.8,0.,4.8,1.,4.8,0.,4.8
1980-11-14 18:25:47.670 ,6,0,0.,4.8,0.,4.8,0.,4.8,0.,4.8
1980-11-14 18:25:52.470 ,6,0,0.,4.8,0.,4.8,0.,4.8,0.,4.8
1980-11-14 18:25:57.270 ,6,0,1.,4.8,0.,4.8,0.,4.8,0.,4.8
1980-11-14 18:26:02.070 ,6,0,0.,4.8,0.,4.8,0.,4.8,0.,4.8
1980-11-14 18:26:06.880 ,6,0,0.,4.8,0.,4.8,0.,4.8,0.,4.8
1980-11-14 18:26:11.670 ,5,0,0.,4.8,0.,4.8,0.,4.8,0.,4.8
1980-11-14 18:26:16.470 ,5,0,1.,4.8,0.,4.8,0.,4.8,0.,4.8
1980-11-14 18:26:21.270 ,5,0,0.,4.8,0.,4.8,1.,4.8,0.,4.8
1980-11-14 18:26:26.070 ,5,0,0.,4.8,0.,4.8,0.,4.8,0.,4.8
1980-11-14 18:26:30.880 ,5,0,1.,4.8,1.,4.8,0.,4.8,0.,4.8
1980-11-14 18:26:35.670 ,5,0,0.,4.8,0.,4.8,0.,4.8,0.,4.8
1980-11-14 18:26:40.470 ,5,0,0.,4.8,0.,4.8,0.,4.8,0.,4.8
1980-11-14 18:26:45.270 ,5,0,0.,4.8,0.,4.8,0.,4.8,0.,4.8
1980-11-14 18:26:50.070 ,5,0,0.,4.8,0.,4.8,0.,4.8,0.,4.8
1980-11-14 18:26:54.880 ,5,0,0.,4.8,0.,4.8,0.,4.8,0.,4.8
1980-11-14 18:26:59.670 ,4,0,0.,4.8,0.,4.8,0.,4.8,0.,4.8
1980-11-14 18:27:04.470 ,4,0,1.,4.8,0.,4.8,0.,4.8,0.,4.8
1980-11-14 18:27:09.270 ,4,0,1.,4.8,0.,4.8,1.,4.8,0.,4.8
1980-11-14 18:27:14.070 ,4,0,0.,4.8,0.,4.8,0.,4.8,0.,4.8
1980-11-14 18:27:18.880 ,4,0,0.,4.8,0.,4.8,0.,4.8,0.,4.8
1980-11-14 18:27:23.670 ,4,0,1.,4.8,0.,4.8,1.,4.8,0.,4.8
1980-11-14 18:27:28.470 ,4,0,0.,4.8,0.,4.8,0.,4.8,0.,4.8
1980-11-14 18:27:33.270 ,4,0,0.,4.8,0.,4.8,0.,4.8,0.,4.8
1980-11-14 18:27:38.070 ,4,0,0.,4.8,0.,4.8,0.,4.8,0.,4.8
1980-11-14 18:27:42.880 ,4,0,1.,4.8,0.,4.8,0.,4.8,0.,4.8
1980-11-14 18:27:47.670 ,3,0,0.,4.8,0.,4.8,0.,4.8,0.,4.8
1980-11-14 18:27:52.470 ,3,0,2.,4.8,0.,4.8,0.,4.8,0.,4.8
1980-11-14 18:27:57.270 ,3,0,0.,4.8,0.,4.8,0.,4.8,0.,4.8
1980-11-14 18:28:02.070 ,3,0,0.,4.8,0.,4.8,0.,4.8,0.,4.8
1980-11-14 18:28:06.880 ,3,0,1.,4.8,0.,4.8,0.,4.8,0.,4.8
1980-11-14 18:28:11.670 ,3,0,0.,4.8,0.,4.8,0.,4.8,0.,4.8
1980-11-14 18:28:16.470 ,3,0,0.,4.8,0.,4.8,0.,4.8,0.,4.8
1980-11-14 18:28:21.270 ,3,0,2.,4.8,0.,4.8,0.,4.8,0.,4.8
1980-11-14 18:28:26.070 ,3,0,0.,4.8,0.,4.8,0.,4.8,0.,4.8
1980-11-14 18:28:30.880 ,3,0,0.,4.8,0.,4.8,1.,4.8,0.,4.8
1980-11-14 18:28:35.670 ,2,0,0.,4.8,0.,4.8,0.,4.8,0.,4.8
1980-11-14 18:28:40.470 ,2,0,0.,4.8,0.,4.8,0.,4.8,0.,4.8
1980-11-14 18:28:45.270 ,2,0,0.,4.8,0.,4.8,0.,4.8,0.,4.8
1980-11-14 18:28:50.070 ,2,0,0.,4.8,0.,4.8,0.,4.8,0.,4.8
1980-11-14 18:28:54.880 ,2,0,0.,4.8,0.,4.8,0.,4.8,0.,4.8
1980-11-14 18:28:59.670 ,2,0,1.,4.8,0.,4.8,0.,4.8,0.,4.8
1980-11-14 18:29:04.470 ,2,0,0.,4.8,0.,4.8,0.,4.8,0.,4.8
1980-11-14 18:29:09.270 ,2,0,1.,4.8,0.,4.8,1.,4.8,0.,4.8
1980-11-14 18:29:14.070 ,2,0,0.,4.8,0.,4.8,0.,4.8,0.,4.8
1980-11-14 18:29:18.880 ,2,0,0.,4.8,0.,4.8,1.,4.8,0.,4.8
1980-11-14 18:29:23.670 ,1,0,0.,4.8,0.,4.8,0.,4.8,0.,4.8
1980-11-14 18:29:28.470 ,1,0,0.,4.8,1.,4.8,0.,4.8,0.,4.8
1980-11-14 18:29:33.270 ,1,0,0.,4.8,0.,4.8,0.,4.8,0.,4.8
1980-11-14 18:29:38.070 ,1,0,0.,4.8,0.,4.8,0.,4.8,0.,4.8
1980-11-14 18:29:42.880 ,1,0,1.,4.8,0.,4.8,0.,4.8,0.,4.8
1980-11-14 18:29:47.670 ,1,0,1.,4.8,0.,4.8,0.,4.8,0.,4.8
1980-11-14 18:29:52.470 ,1,0,0.,4.8,0.,4.8,0.,4.8,0.,4.8
1980-11-14 18:29:57.270 ,1,0,0.,4.8,0.,4.8,0.,4.8,0.,4.8
1980-11-14 18:30:02.070 ,1,0,0.,4.8,0.,4.8,0.,4.8,0.,4.8
1980-11-14 18:30:06.880 ,1,0,1.,4.8,0.,4.8,0.,4.8,0.,4.8
1980-11-14 18:30:11.670 ,0,0,1.,4.8,0.,4.8,0.,4.8,0.,4.8
1980-11-14 18:30:16.470 ,0,0,0.,4.8,0.,4.8,0.,4.8,0.,4.8
1980-11-14 18:30:21.270 ,0,0,1.,4.8,0.,4.8,0.,4.8,0.,4.8
1980-11-14 18:30:26.070 ,0,0,1.,4.8,0.,4.8,0.,4.8,0.,4.8
1980-11-14 18:30:30.880 ,0,0,0.,4.8,0.,4.8,0.,4.8,0.,4.8
1980-11-14 18:30:35.670 ,0,0,1.,4.8,0.,4.8,0.,4.8,0.,4.8
1980-11-14 18:30:40.470 ,0,0,0.,4.8,0.,4.8,0.,4.8,0.,4.8
1980-11-14 18:30:45.270 ,0,0,1.,4.8,0.,4.8,0.,4.8,0.,4.8
1980-11-14 18:30:50.070 ,0,0,1.,4.8,0.,4.8,0.,4.8,0.,4.8
1980-11-14 18:30:54.880 ,0,0,0.,4.8,0.,4.8,0.,4.8,0.,4.8
1980-11-14 18:30:59.670 ,0,0,1.,4.8,0.,4.8,0.,4.8,0.,4.8
1980-11-14 18:31:04.470 ,0,0,2.,4.8,0.,4.8,0.,4.8,0.,4.8
1980-11-14 18:31:09.270 ,0,0,0.,4.8,0.,4.8,0.,4.8,0.,4.8
1980-11-14 18:31:14.070 ,0,0,1.,4.8,0.,4.8,0.,4.8,0.,4.8
1980-11-14 18:31:18.880 ,0,0,0.,4.8,0.,4.8,0.,4.8,0.,4.8
1980-11-14 18:31:23.670 ,0,0,0.,4.8,0.,4.8,0.,4.8,0.,4.8
1980-11-14 18:31:28.470 ,0,0,0.,4.8,0.,4.8,0.,4.8,0.,4.8
1980-11-14 18:31:33.270 ,0,0,0.,4.8,0.,4.8,0.,4.8,0.,4.8
1980-11-14 18:31:38.070 ,0,0,1.,4.8,0.,4.8,0.,4.8,0.,4.8
1980-11-14 18:31:42.880 ,0,0,0.,4.8,0.,4.8,0.,4.8,0.,4.8
1980-11-14 18:31:47.670 ,1,0,0.,4.8,0.,4.8,0.,4.8,0.,4.8
1980-11-14 18:31:52.470 ,1,0,0.,4.8,0.,4.8,0.,4.8,0.,4.8
1980-11-14 18:31:57.270 ,1,0,1.,4.8,0.,4.8,0.,4.8,0.,4.8
1980-11-14 18:32:02.070 ,1,0,1.,4.8,0.,4.8,0.,4.8,0.,4.8
1980-11-14 18:32:06.880 ,1,0,2.,4.8,0.,4.8,0.,4.8,0.,4.8
1980-11-14 18:32:11.670 ,1,0,0.,4.8,0.,4.8,0.,4.8,0.,4.8
1980-11-14 18:32:16.470 ,1,0,0.,4.8,0.,4.8,0.,4.8,0.,4.8
1980-11-14 18:32:21.270 ,1,0,1.,4.8,0.,4.8,0.,4.8,0.,4.8
1980-11-14 18:32:26.070 ,1,0,1.,4.8,0.,4.8,1.,4.8,0.,4.8
1980-11-14 18:32:30.880 ,1,0,0.,4.8,0.,4.8,1.,4.8,0.,4.8
1980-11-14 18:32:35.670 ,2,0,0.,4.8,0.,4.8,0.,4.8,0.,4.8
1980-11-14 18:32:40.470 ,2,0,0.,4.8,0.,4.8,0.,4.8,0.,4.8
1980-11-14 18:32:45.270 ,2,0,0.,4.8,0.,4.8,0.,4.8,0.,4.8
1980-11-14 18:32:50.070 ,2,0,0.,4.8,0.,4.8,1.,4.8,0.,4.8
1980-11-14 18:32:54.880 ,2,0,0.,4.8,0.,4.8,0.,4.8,0.,4.8
1980-11-14 18:32:59.670 ,2,0,0.,4.8,0.,4.8,0.,4.8,0.,4.8
1980-11-14 18:33:04.470 ,2,0,0.,4.8,0.,4.8,0.,4.8,0.,4.8